Hourly Weather Dziecmorowice

Today, 16 May, Sunday

Time Temperature Precipitation Wind Pressure Humidity
00:00 +8°C° 0.3 mm 2 mps 715 mmHg 94%
01:00 +9°C° 0 mm 1 mps 715 mmHg 94%
02:00 +9°C° 0 mm 1 mps 715 mmHg 94%
03:00 +8°C° 0 mm 2 mps 714 mmHg 94%
04:00 +7°C° 0 mm 2 mps 714 mmHg 95%
05:00 +8°C° 0.1 mm 2 mps 715 mmHg 92%
06:00 +9°C° 0.1 mm 3 mps 715 mmHg 90%
07:00 +10°C° 0 mm 3 mps 715 mmHg 88%
08:00 +10°C° 0.2 mm 3 mps 715 mmHg 85%
09:00 +11°C° 0.2 mm 4 mps 715 mmHg 83%
10:00 +11°C° 0.2 mm 4 mps 715 mmHg 80%
11:00 +12°C° 0.1 mm 4 mps 715 mmHg 73%
12:00 +13°C° 0.1 mm 4 mps 715 mmHg 67%
13:00 +14°C° 0.1 mm 5 mps 716 mmHg 60%
14:00 +14°C° 0 mm 4 mps 715 mmHg 59%
15:00 +14°C° 0 mm 4 mps 715 mmHg 59%
16:00 +14°C° 0 mm 4 mps 715 mmHg 58%
17:00 +13°C° 0 mm 3 mps 715 mmHg 65%
18:00 +12°C° 0 mm 3 mps 715 mmHg 73%
19:00 +10°C° 0 mm 2 mps 714 mmHg 81%
20:00 +9°C° 0 mm 2 mps 714 mmHg 84%
21:00 +8°C° 0 mm 2 mps 715 mmHg 87%
22:00 +7°C° 0 mm 2 mps 715 mmHg 91%
23:00 +8°C° 0 mm 2 mps 715 mmHg 90%

Tomorrow, 17 May, Monday

Time Temperature Precipitation Wind Pressure Humidity
00:00 +8°C° 0 mm 2 mps 715 mmHg 89%
01:00 +8°C° 0 mm 2 mps 715 mmHg 89%
02:00 +8°C° 0.2 mm 2 mps 714 mmHg 90%
03:00 +8°C° 0.2 mm 2 mps 714 mmHg 91%
04:00 +8°C° 0.2 mm 2 mps 714 mmHg 93%
05:00 +9°C° 0.1 mm 2 mps 714 mmHg 92%
06:00 +9°C° 0.1 mm 2 mps 714 mmHg 92%
07:00 +9°C° 0.1 mm 2 mps 714 mmHg 92%
08:00 +10°C° 0.2 mm 2 mps 715 mmHg 90%
09:00 +10°C° 0.2 mm 2 mps 715 mmHg 89%
10:00 +10°C° 0.2 mm 2 mps 715 mmHg 87%
11:00 +10°C° 0.6 mm 2 mps 715 mmHg 88%
12:00 +10°C° 0.6 mm 2 mps 715 mmHg 88%
13:00 +10°C° 0.6 mm 2 mps 715 mmHg 88%
14:00 +10°C° 0.8 mm 2 mps 715 mmHg 88%
15:00 +10°C° 0.8 mm 2 mps 715 mmHg 89%
16:00 +10°C° 0.8 mm 2 mps 715 mmHg 89%
17:00 +10°C° 0.5 mm 3 mps 716 mmHg 90%
18:00 +10°C° 0.5 mm 3 mps 716 mmHg 90%
19:00 +9°C° 0.5 mm 3 mps 716 mmHg 91%
20:00 +9°C° 0 mm 3 mps 716 mmHg 91%
21:00 +9°C° 0 mm 3 mps 716 mmHg 91%
22:00 +8°C° 0 mm 3 mps 717 mmHg 92%
23:00 +8°C° 0 mm 3 mps 717 mmHg 92%

Day after tomorrow, 18 May, Tuesday

Time Temperature Precipitation Wind Pressure Humidity
00:00 +7°C° 0 mm 3 mps 717 mmHg 92%
01:00 +7°C° 0 mm 3 mps 717 mmHg 92%
02:00 +7°C° 0 mm 3 mps 717 mmHg 93%
03:00 +5°C° 0 mm 3 mps 717 mmHg 94%
04:00 +5°C° 0 mm 3 mps 717 mmHg 94%
05:00 +7°C° 0 mm 3 mps 718 mmHg 92%
06:00 +7°C° 0 mm 4 mps 718 mmHg 90%
07:00 +8°C° 0 mm 5 mps 718 mmHg 88%
08:00 +8°C° 0.1 mm 5 mps 718 mmHg 85%
09:00 +9°C° 0.1 mm 5 mps 719 mmHg 83%
10:00 +9°C° 0.1 mm 5 mps 719 mmHg 80%
11:00 +10°C° 0.2 mm 5 mps 719 mmHg 75%
12:00 +13°C° 0.2 mm 5 mps 719 mmHg 70%
13:00 +14°C° 0.2 mm 5 mps 719 mmHg 65%
14:00 +13°C° 0.4 mm 5 mps 719 mmHg 69%
15:00 +13°C° 0.4 mm 5 mps 719 mmHg 72%
16:00 +13°C° 0.4 mm 5 mps 719 mmHg 76%
17:00 +12°C° 0.4 mm 4 mps 720 mmHg 80%
18:00 +11°C° 0.4 mm 3 mps 720 mmHg 84%
19:00 +10°C° 0.4 mm 2 mps 720 mmHg 89%
20:00 +9°C° 0.1 mm 2 mps 720 mmHg 90%
21:00 +8°C° 0.1 mm 2 mps 720 mmHg 92%
22:00 +7°C° 0.1 mm 2 mps 720 mmHg 94%
23:00 +6°C° 0.1 mm 2 mps 721 mmHg 94%

19 May, Wednesday

Time Temperature Precipitation Wind Pressure Humidity
00:00 +6°C° 0.1 mm 2 mps 721 mmHg 94%
01:00 +6°C° 0.1 mm 2 mps 721 mmHg 95%
02:00 +6°C° 0 mm 2 mps 721 mmHg 95%
03:00 +6°C° 0 mm 2 mps 721 mmHg 95%
04:00 +6°C° 0 mm 2 mps 721 mmHg 95%
05:00 +9°C° 0 mm 3 mps 722 mmHg 78%
06:00 +8°C° 0 mm 3 mps 722 mmHg 83%
07:00 +7°C° 0 mm 2 mps 722 mmHg 89%
08:00 +9°C° 0.2 mm 3 mps 722 mmHg 82%
09:00 +10°C° 0.2 mm 3 mps 722 mmHg 77%
10:00 +10°C° 0.2 mm 4 mps 722 mmHg 72%
11:00 +7°C° 0.2 mm 3 mps 722 mmHg 89%
12:00 +6°C° 0.2 mm 4 mps 723 mmHg 90%
13:00 +6°C° 0.2 mm 4 mps 723 mmHg 92%
14:00 +8°C° 0.1 mm 3 mps 722 mmHg 83%
15:00 +10°C° 0.1 mm 4 mps 721 mmHg 76%
16:00 +10°C° 0.1 mm 5 mps 721 mmHg 70%
17:00 +10°C° 0 mm 4 mps 721 mmHg 74%
18:00 +9°C° 0 mm 3 mps 721 mmHg 79%
19:00 +8°C° 0 mm 3 mps 721 mmHg 84%
20:00 +7°C° 0 mm 2 mps 721 mmHg 87%
21:00 +6°C° 0 mm 2 mps 721 mmHg 90%
22:00 +5°C° 0 mm 2 mps 722 mmHg 93%
23:00 +5°C° 0 mm 2 mps 722 mmHg 91%

20 May, Thursday

Time Temperature Precipitation Wind Pressure Humidity
00:00 +5°C° 0 mm 2 mps 722 mmHg 89%
01:00 +6°C° 0 mm 2 mps 722 mmHg 87%
02:00 +6°C° 0 mm 2 mps 722 mmHg 87%
03:00 +6°C° 0 mm 2 mps 722 mmHg 87%
04:00 +5°C° 0 mm 2 mps 722 mmHg 88%
05:00 +6°C° 0 mm 2 mps 723 mmHg 85%
06:00 +8°C° 0 mm 2 mps 723 mmHg 81%
07:00 +9°C° 0 mm 3 mps 723 mmHg 78%
08:00 +10°C° 0.2 mm 3 mps 723 mmHg 76%
09:00 +10°C° 0.2 mm 4 mps 723 mmHg 75%
10:00 +11°C° 0.2 mm 4 mps 723 mmHg 73%
11:00 +10°C° 0.4 mm 5 mps 724 mmHg 74%
12:00 +10°C° 0.4 mm 5 mps 724 mmHg 75%
13:00 +10°C° 0.4 mm 5 mps 724 mmHg 77%
14:00 +10°C° 0.4 mm 5 mps 724 mmHg 75%
15:00 +10°C° 0.4 mm 5 mps 724 mmHg 74%
16:00 +10°C° 0.4 mm 5 mps 724 mmHg 72%
17:00 +9°C° 0.1 mm 5 mps 724 mmHg 75%
18:00 +10°C° 0.1 mm 4 mps 724 mmHg 79%
19:00 +8°C° 0.1 mm 4 mps 724 mmHg 82%
20:00 +7°C° 0 mm 3 mps 725 mmHg 85%
21:00 +5°C° 0 mm 3 mps 725 mmHg 88%
22:00 +5°C° 0 mm 2 mps 725 mmHg 92%
23:00 +5°C° 0 mm 2 mps 725 mmHg 92%

21 May, Friday

Time Temperature Precipitation Wind Pressure Humidity
00:00 +4°C° 0 mm 2 mps 725 mmHg 92%
01:00 +4°C° 0 mm 2 mps 725 mmHg 93%
02:00 +4°C° 0 mm 2 mps 725 mmHg 93%
03:00 +3°C° 0 mm 2 mps 725 mmHg 93%
04:00 +3°C° 0 mm 2 mps 725 mmHg 94%
05:00 +4°C° 0 mm 2 mps 725 mmHg 87%
06:00 +5°C° 0 mm 3 mps 725 mmHg 80%
07:00 +7°C° 0 mm 3 mps 725 mmHg 73%
08:00 +9°C° 0 mm 3 mps 725 mmHg 67%
09:00 +10°C° 0 mm 3 mps 725 mmHg 60%
10:00 +11°C° 0 mm 4 mps 725 mmHg 54%
11:00 +12°C° 0 mm 4 mps 724 mmHg 54%
12:00 +12°C° 0 mm 4 mps 724 mmHg 53%
13:00 +13°C° 0 mm 4 mps 724 mmHg 53%
14:00 +13°C° 0 mm 3 mps 724 mmHg 54%
15:00 +14°C° 0 mm 2 mps 723 mmHg 56%
16:00 +14°C° 0 mm 2 mps 723 mmHg 57%
17:00 +13°C° 0 mm 2 mps 723 mmHg 64%
18:00 +12°C° 0 mm 2 mps 723 mmHg 71%
19:00 +10°C° 0 mm 3 mps 723 mmHg 78%
20:00 +9°C° 0.2 mm 2 mps 723 mmHg 82%
21:00 +9°C° 0.2 mm 1 mps 723 mmHg 87%
22:00 +9°C° 0.2 mm 1 mps 723 mmHg 92%
23:00 +8°C° 0 mm 1 mps 723 mmHg 91%
Show more

We Need Your Consent

Meteoprog and our Service Providers may store and access personal data such as cookies, device identifiers or other similar technologies on your device and process such data to personalise content and ads, as well as provide social media features and to analyse the traffic.

  • Store and/or access information on your device

    Cookies, device identifiers or other information can be stored or accessed on your device for the purposes indicated above.

  • Personalised ads and content, ad and content measurement, audience insights, and products development

    Ads and content can be personalised based on a profile. More data can be added to better personalise ads and content. Ad and content performance can be measured. Insights about the audience who saw the ads and content can be derived. Such data can be used to develop or improve user’s experience, systems and software.

By clicking ‘I Agree’ you will allow the use of indicated cookies, device identifiers, web beacons or other similar technologies. Your settings can be changed in the browser on your device.

For certain purposes, legitimate interests may be relied on, rather than consent. You can read more about this in our Privacy and Cookie Policy.